Total_Precipitation_Accumulation
0.04 0.07 0.11 0.16 0.18 0.21 0.26 0.35 0.40 0.44 0.41 0.50 0.60 0.72 0.96 1.16 1.41 1.47 1.56 1.84 2.10 2.33 2.47 2.80 3.19 3.49 4.01 4.16 4.11 4.19 4.34 4.56 4.69 4.98 5.08 5.36 5.68 5.87 6.03 5.97 5.77 5.82 5.86 5.95
0.08 0.11 0.11 0.15 0.15 0.17 0.27 0.43 0.47 0.44 0.42 0.52 0.71 0.87 1.07 1.29 1.44 1.43 1.57 1.76 1.99 2.40 2.73 2.93 3.12 3.54 4.05 4.31 4.39 4.46 4.68 5.02 5.20 5.47 5.93 6.22 6.52 6.76 6.95 6.99 6.55 6.26 6.15 6.04
0.08 0.11 0.10 0.12 0.13 0.16 0.21 0.31 0.40 0.46 0.50 0.59 0.82 1.21 1.42 1.57 1.65 1.78 2.00 2.17 2.28 2.52 2.90 2.99 3.04 3.46 3.81 4.07 4.26 4.48 4.75 5.24 5.79 6.18 6.60 6.94 7.16 7.19 6.99 6.69 6.63 6.42 6.25 6.13
0.10 0.07 0.08 0.11 0.14 0.17 0.20 0.23 0.34 0.41 0.58 0.74 0.87 1.59 1.97 1.98 1.98 2.20 2.40 2.43 2.50 2.60 2.81 2.95 3.07 3.37 3.70 4.00 4.20 4.57 5.13 5.86 6.41 6.82 7.35 7.89 8.02 7.72 7.35 6.91 6.46 6.19 5.95 5.66
0.12 0.10 0.12 0.13 0.15 0.18 0.19 0.21 0.29 0.35 0.47 0.70 0.93 1.47 2.37 2.42 2.40 2.55 2.70 2.49 2.49 2.40 2.48 2.73 2.89 3.13 3.62 3.92 4.17 4.54 5.17 5.94 6.66 7.46 8.08 8.51 8.37 7.97 7.53 6.84 6.25 5.80 5.42 5.06
0.12 0.10 0.11 0.10 0.11 0.16 0.16 0.21 0.30 0.37 0.50 0.84 0.90 1.32 2.17 2.50 2.66 2.77 2.66 2.40 2.31 2.22 2.25 2.37 2.55 2.92 3.45 3.73 3.91 4.27 4.93 5.74 6.42 7.02 7.52 7.77 7.64 7.44 6.89 6.19 5.57 5.16 4.86 4.52
0.20 0.19 0.13 0.09 0.10 0.17 0.20 0.29 0.64 0.88 1.02 1.06 0.84 1.18 1.95 2.25 2.38 2.31 2.31 2.33 2.17 2.22 2.15 2.14 2.30 2.60 3.02 3.16 3.49 3.90 4.37 5.06 5.51 5.84 6.19 6.40 6.53 6.33 5.97 5.46 4.99 4.57 4.11 3.74
0.34 0.33 0.17 0.11 0.12 0.20 0.23 0.28 0.73 1.10 1.16 1.18 1.14 1.61 2.21 2.19 2.09 2.02 1.96 1.98 2.04 2.18 2.17 2.15 2.31 2.53 2.81 2.99 3.13 3.28 3.56 3.97 4.15 4.20 4.42 4.71 4.79 4.76 4.61 4.33 3.93 3.66 3.31 2.93
0.45 0.35 0.18 0.13 0.11 0.16 0.23 0.24 0.36 0.71 0.84 1.29 1.61 2.09 2.58 2.29 2.15 2.12 2.01 1.87 1.83 1.89 2.01 2.17 2.29 2.32 2.34 2.37 2.45 2.56 2.75 2.89 2.95 3.04 3.14 3.30 3.34 3.33 3.30 3.17 2.91 2.68 2.53 2.25
0.39 0.35 0.19 0.14 0.13 0.17 0.21 0.29 0.45 0.82 1.30 1.59 1.86 2.56 3.24 2.95 2.45 2.11 1.86 1.64 1.60 1.70 1.82 2.01 2.17 2.15 2.15 2.06 2.11 2.20 2.32 2.39 2.39 2.46 2.47 2.43 2.48 2.49 2.50 2.37 2.24 2.18 2.09 1.98
0.36 0.40 0.25 0.20 0.25 0.27 0.31 0.38 0.56 0.86 1.06 1.57 2.12 2.90 2.97 3.15 2.92 2.40 2.05 1.87 1.78 1.72 1.80 1.99 2.02 1.98 1.99 1.96 1.98 2.05 2.05 2.07 2.07 2.06 2.10 2.09 2.01 2.01 2.08 2.08 1.96 1.93 1.88 1.74
0.36 0.50 0.47 0.33 0.28 0.26 0.30 0.37 0.57 1.12 1.27 1.33 2.03 3.08 2.80 3.04 3.16 2.84 2.55 2.39 2.27 2.08 1.96 1.95 1.89 1.84 1.79 1.85 1.91 1.99 1.95 1.90 1.94 1.84 1.79 1.80 1.84 1.81 1.82 1.80 1.70 1.69 1.74 1.65
0.41 0.64 1.03 0.98 0.77 0.48 0.40 0.40 0.48 0.67 1.10 1.44 2.12 3.29 3.18 3.04 3.11 3.01 2.73 2.60 2.62 2.48 2.34 2.18 1.98 1.91 1.86 1.85 1.84 1.72 1.74 1.74 1.78 1.77 1.73 1.68 1.73 1.78 1.76 1.69 1.66 1.63 1.68 1.65
0.37 0.67 1.27 1.67 1.25 0.80 0.58 0.45 0.48 0.66 1.21 1.48 1.90 2.66 3.02 3.06 3.03 3.02 3.11 3.07 3.03 2.76 2.55 2.40 2.18 2.12 2.03 1.98 1.98 1.85 1.77 1.64 1.63 1.64 1.65 1.69 1.76 1.83 1.81 1.79 1.79 1.73 1.63 1.56
0.52 0.95 0.92 0.82 0.73 0.67 0.58 0.57 0.56 0.62 0.79 1.23 1.70 2.20 2.71 2.87 2.96 3.19 3.35 3.29 3.03 2.64 2.41 2.38 2.33 2.33 2.26 2.09 2.01 1.91 1.77 1.60 1.57 1.55 1.60 1.68 1.75 1.77 1.71 1.75 1.73 1.70 1.69 1.55
0.63 0.97 0.95 0.83 0.67 0.73 0.74 0.77 0.78 0.76 0.84 1.18 1.67 2.42 2.71 2.87 3.12 3.20 3.20 3.30 3.27 2.85 2.57 2.45 2.33 2.26 2.32 2.18 2.04 1.89 1.82 1.74 1.68 1.63 1.59 1.57 1.60 1.56 1.54 1.55 1.57 1.52 1.50 1.50
0.68 1.02 1.38 1.26 0.77 1.03 1.42 1.25 1.09 1.08 1.14 1.38 1.84 2.26 2.39 2.57 2.80 3.07 3.29 3.32 3.44 3.12 2.76 2.54 2.46 2.34 2.30 2.37 2.37 2.23 2.00 1.86 1.62 1.55 1.53 1.45 1.39 1.37 1.42 1.39 1.40 1.45 1.51 1.50
0.62 1.07 1.36 1.36 1.50 2.04 1.69 1.16 1.06 1.22 1.34 1.35 1.59 1.71 1.99 2.26 2.46 2.78 3.04 3.36 3.53 3.27 2.96 2.70 2.53 2.43 2.38 2.39 2.37 2.19 2.01 1.79 1.60 1.55 1.49 1.36 1.26 1.25 1.36 1.33 1.35 1.42 1.43 1.40
0.51 1.04 1.48 1.67 2.05 2.11 1.73 1.18 1.07 1.43 1.77 1.41 1.44 1.52 1.60 1.74 2.05 2.64 2.67 2.81 3.14 3.17 3.00 2.81 2.57 2.46 2.42 2.26 2.17 2.10 1.86 1.76 1.69 1.54 1.44 1.28 1.21 1.25 1.28 1.24 1.27 1.36 1.34 1.32
0.63 0.98 1.55 1.79 2.30 2.57 2.09 1.10 0.82 1.28 2.30 1.67 1.47 1.59 1.63 1.86 2.30 2.40 2.15 2.21 2.41 2.61 2.68 2.60 2.41 2.29 2.30 2.15 2.03 2.04 1.92 1.76 1.69 1.56 1.46 1.30 1.27 1.27 1.29 1.31 1.30 1.27 1.26 1.23
1.17 1.36 1.65 1.90 2.29 2.32 1.35 0.89 1.06 2.18 2.62 1.80 1.48 1.62 1.87 2.23 2.22 1.85 1.64 1.77 1.95 2.05 2.19 2.25 2.24 2.23 2.13 1.94 1.91 2.07 2.19 2.00 1.67 1.54 1.49 1.46 1.45 1.37 1.35 1.38 1.37 1.31 1.21 1.21
1.36 1.65 1.81 2.00 2.51 2.51 1.18 0.99 1.67 2.03 1.58 1.44 1.46 1.51 1.57 1.60 1.47 1.38 1.42 1.57 1.62 1.72 1.85 2.00 2.16 2.13 2.08 1.96 1.91 1.90 1.96 1.91 1.74 1.63 1.61 1.56 1.48 1.40 1.36 1.45 1.39 1.36 1.40 1.36
1.27 1.55 1.75 2.00 2.39 1.91 1.20 1.12 1.18 1.20 1.33 1.34 1.42 1.41 1.32 1.29 1.30 1.26 1.35 1.52 1.61 1.65 1.74 1.83 1.94 1.98 1.96 1.86 1.88 1.89 1.83 1.66 1.63 1.75 1.70 1.62 1.52 1.46 1.46 1.50 1.41 1.32 1.42 1.39
1.30 1.08 1.25 1.53 1.63 1.48 1.35 1.15 1.08 1.13 1.17 1.23 1.33 1.33 1.27 1.27 1.20 1.19 1.33 1.48 1.55 1.53 1.58 1.68 1.80 1.86 1.83 1.70 1.68 1.70 1.60 1.60 1.66 1.67 1.63 1.63 1.59 1.45 1.36 1.35 1.28 1.24 1.27 1.33
1.32 1.16 1.33 1.59 1.59 1.51 1.52 1.38 1.27 1.30 1.28 1.21 1.28 1.35 1.30 1.27 1.29 1.23 1.32 1.34 1.38 1.42 1.45 1.53 1.72 1.79 1.71 1.56 1.45 1.41 1.51 1.62 1.71 1.61 1.46 1.44 1.40 1.32 1.28 1.21 1.13 1.08 1.01 1.03
1.21 1.28 1.44 1.70 1.56 1.54 1.51 1.37 1.29 1.52 1.63 1.45 1.37 1.34 1.28 1.25 1.30 1.18 1.14 1.14 1.16 1.22 1.32 1.47 1.56 1.60 1.53 1.44 1.40 1.33 1.41 1.51 1.57 1.50 1.43 1.38 1.26 1.19 1.10 1.07 1.05 1.06 0.96 0.89